Regional Weather Roundup
Issued by NWS

Home | Current Version | Previous Version | Graphics & Text | Print | Product List | Glossary On
Versions: 1 2 3 4 5 6 7 8 9 10 11 12 13 14 15 16 17 18 19 20 21 22 23 24 25 26 27 28 29 30 31 32 33 34 35 36 37 38 39 40 41 42 43 44 45 46 47 48 49 50
094
ASUS44 KJAN 190210
RWRMS

MISSISSIPPI HOURLY WEATHER ROUNDUP
NATIONAL WEATHER SERVICE JACKSON MS
900 PM CDT FRI APR 18 2014

NOTE: "FAIR: INDICATES FEW OR NO CLOUDS BELOW 12,000 FEET WITH NO
SIGNIFICANT WEATHER AND/OR OBSTRUCTIONS TO VISIBILITY.

MSZ001>002-007>008-010>013-018>021-025>028-034>036-190300-
NORTHWEST MISSISSIPPI

CITY           SKY/WX    TMP DP  RH WIND       PRES   REMARKS
CLARKSDALE       N/A     64  55  72 E8        30.18R
CLEVELAND      MOCLDY    64  56  74 E5        30.16R
GREENWOOD      CLEAR     59  52  77 NE6       30.16R
GREENVILLE     MOCLDY    65  55  70 E5        30.15R
GRENADA        CLOUDY    61  54  77 E6        30.17R
OLIVE BRANCH   CLOUDY    63  52  67 CALM      30.18R
OXFORD         MOCLDY    59  50  72 E3        30.19R
TUNICA         MOCLDY    63  54  72 SE6       30.18R
$$

MSZ003>006-009-014>017-022>024-029>033-037>039-190300-
NORTHEAST MISSISSIPPI

CITY           SKY/WX    TMP DP  RH WIND       PRES   REMARKS
BELMONT        FAIR      56  53  88 CALM      30.18S
COLUMBUS AFB   MOCLDY    56  53  91 NW3       30.17S
CORINTH        MOCLDY    59  52  77 SE3       30.18S HAZE
GOLDN TRIANGLE MOCLDY    55  50  82 CALM      30.20R
STARKVILLE     FAIR      55  54  94 CALM      30.17R
TUPELO         CLOUDY    59  52  77 CALM      30.18R
$$

MSZ040-058-190300-
CENTRAL MISSISSIPPI

CITY           SKY/WX    TMP DP  RH WIND       PRES   REMARKS
JACKSON INTL   MOCLDY    62  54  74 NE7       30.14R
JACKSON HAWKNS CLEAR     63  53  70 VRB5      30.14R
MERIDIAN KEY   CLOUDY    57  53  86 N7        30.15S
MERIDIAN NAS   CLOUDY    57  53  86 N3        30.15S
RAYMOND        FAIR      61  55  82 CALM      30.13R
VICKSBURG      PTCLDY    66  55  67 N5        30.13R
$$

MSZ059>079-190300-
SOUTH MISSISSIPPI

CITY           SKY/WX    TMP DP  RH WIND       PRES   REMARKS
BROOKHAVEN     FAIR      57  55  94 CALM      30.13R
COLUMBIA       FAIR      59  55  88 MISG      30.11S
HATTIESBURG    MOCLDY    59  56  89 N8        30.14S
MCCOMB         CLEAR     63  54  72 CALM      30.11R
NATCHEZ        CLEAR     61  57  88 CALM      30.12R
PINE BELT      MOCLDY    57  54  88 NE8       30.13F
$$

MSZ080>082-190300-
COASTAL MISSISSIPPI

CITY           SKY/WX    TMP DP  RH WIND       PRES   REMARKS
BILOXI         MOCLDY    62  55  77 NE15G21   30.09R
PASCAGOULA     CLOUDY    60  54  80 N13G23    30.09R
GULFPORT       PTCLDY    64  53  67 N10       30.09R
$$



USA.gov is the U.S. government's official web portal to all federal, state and local government web resources and services.